Weather History for Lancaster, CA

Change the Weather History Date:

Sunday, April 7, 2013

  Actual Average Record
Temperature  
Mean Temperature 65 °F 57 °F  
Max Temperature 75 °F 71 °F 96 °F (1989)
Min Temperature 54 °F 42 °F 25 °F (2012)
Degree Days  
Heating Degree Days 0    
Month to date heating degree days 18  
Since 1 July heating degree days 2596  
Cooling Degree Days 0    
Month to date cooling degree days 2  
Year to date cooling degree days 14  
Growing Degree Days 14 (Base 50)    
Moisture  
Dew Point 37 °F    
Average Humidity 43    
Maximum Humidity 66    
Minimum Humidity 20    
Precipitation  
Precipitation 0.00 in 0.02 in 0.49 in (2011)
Month to date precipitation 0.00 0.13  
Year to date precipitation 0.95 4.55  
Since 1 July precipitation 1.11 7.02  
Snow  
Snow 0.00 in - 0.00 in ()
Month to date snowfall 0.0  
Since 1 July snowfall 0.0  
Snow Depth 0.00 in    
Sea Level Pressure  
Sea Level Pressure 29.88 in    
Wind  
Wind Speed 25 mph (West)    
Max Wind Speed 37 mph    
Max Gust Speed 43 mph    
Visibility 8 miles    
Events      
T = Trace of Precipitation, MM = Missing Value Source: NWS Daily Summary

Daily Weather History Graph

Daily Weather History Graph

Search for Another Location

Airport:

Trip Planner

Search our weather history database for the weather conditions in past years. The results will help you decide how hot, cold, wet, or windy it might be!

Date:

Astronomy

Apr. 07, 2013 Rise Set
Actual Time 6:31 AM PDT 7:19 PM PDT
Civil Twilight 6:05 AM PDT 7:44 PM PDT
Nautical Twilight 5:35 AM PDT 8:15 PM PDT
Astronomical Twilight 5:04 AM PDT 8:46 PM PDT
Moon 4:45 AM PDT (4/7) 5:00 PM PDT (4/7)
Length of Visible Light 13h 39m
Length of Day
12h 47m
Waning Crescent, 7% of the Moon is Illuminated
Apr 7
Waning Crescent
Apr 10
New
Apr 18
First Quarter
Apr 25
Full
May 2
Last Quarter

Hourly Weather History & Observations

Time (PDT) Temp. Dew Point Humidity Pressure Visibility Wind Dir Wind Speed Gust Speed Precip Events Conditions
12:56 AM 57.0 °F 37.9 °F 49% 29.96 in 10.0 mi West 24.2 mph 34.5 mph N/A   Clear
1:56 AM 57.9 °F 37.0 °F 46% 29.95 in 10.0 mi West 33.4 mph 42.6 mph N/A   Clear
2:56 AM 57.9 °F 39.9 °F 51% 29.93 in 10.0 mi WNW 29.9 mph 38.0 mph N/A   Clear
3:56 AM 55.0 °F 42.1 °F 62% 29.94 in 10.0 mi West 24.2 mph 28.8 mph N/A   Clear
4:56 AM 54.0 °F 43.0 °F 66% 29.94 in 10.0 mi West 20.7 mph 29.9 mph N/A   Clear
5:56 AM 54.0 °F 42.1 °F 64% 29.95 in 10.0 mi West 17.3 mph 24.2 mph N/A   Clear
6:56 AM 54.0 °F 42.1 °F 64% 29.96 in 10.0 mi WNW 24.2 mph 32.2 mph N/A   Clear
7:56 AM 55.9 °F 42.1 °F 60% 29.98 in 10.0 mi WNW 21.9 mph 28.8 mph N/A   Clear
8:56 AM 61.0 °F 39.0 °F 44% 29.97 in 10.0 mi WNW 25.3 mph 29.9 mph N/A   Clear
9:56 AM 63.0 °F 39.0 °F 41% 29.97 in 10.0 mi West 25.3 mph 31.1 mph N/A   Clear
10:56 AM 63.0 °F 37.0 °F 38% 29.97 in 10.0 mi West 29.9 mph 35.7 mph N/A   Clear
11:56 AM 66.0 °F 37.0 °F 34% 29.96 in 10.0 mi West 31.1 mph 38.0 mph N/A   Clear
12:56 PM 69.1 °F 34.0 °F 27% 29.94 in 10.0 mi WNW 21.9 mph 28.8 mph N/A   Clear
1:56 PM 73.9 °F 30.0 °F 20% 29.89 in 10.0 mi WNW 20.7 mph 31.1 mph N/A   Clear
2:56 PM 73.9 °F 30.9 °F 21% 29.86 in 10.0 mi West 32.2 mph 38.0 mph N/A   Clear
3:56 PM 71.1 °F 33.1 °F 25% 29.85 in 10.0 mi West 32.2 mph 39.1 mph N/A   Clear
4:56 PM 70.0 °F 34.0 °F 27% 29.83 in 10.0 mi West 28.8 mph 39.1 mph N/A   Clear
5:56 PM 66.9 °F 35.1 °F 31% 29.81 in 10.0 mi West 28.8 mph 38.0 mph N/A   Clear
6:09 PM 66.2 °F 33.8 °F 30% 29.84 in 0.5 mi West 31.1 mph 36.8 mph N/A   Haze
6:16 PM 66.2 °F 33.8 °F 30% 29.84 in 0.2 mi West 28.8 mph 38.0 mph N/A   Haze
6:32 PM 64.4 °F 33.8 °F 32% 29.84 in 1.8 mi West 32.2 mph 40.3 mph N/A   Haze
6:39 PM 64.4 °F 33.8 °F 32% 29.84 in 10.0 mi West 26.5 mph 35.7 mph N/A   Clear
6:52 PM 62.6 °F 33.8 °F 34% 29.85 in 0.5 mi West 24.2 mph 38.0 mph N/A   Haze
6:56 PM 63.0 °F 34.0 °F 34% 29.83 in 0.2 mi West 28.8 mph 38.0 mph N/A   Haze
7:23 PM 60.8 °F 35.6 °F 39% 29.85 in 1.0 mi West 27.6 mph 33.4 mph N/A   Haze
7:25 PM 60.8 °F 35.6 °F 39% 29.85 in 5.0 mi West 25.3 mph 33.4 mph N/A   Haze
7:56 PM 60.1 °F 36.0 °F 41% 29.81 in 10.0 mi West 26.5 mph - N/A   Clear
8:56 PM 59.0 °F 36.0 °F 42% 29.82 in 10.0 mi West 18.4 mph 28.8 mph N/A   Clear
9:56 PM 59.0 °F 37.0 °F 44% 29.81 in 10.0 mi West 26.5 mph - N/A   Clear
10:56 PM 57.9 °F 37.0 °F 46% 29.80 in 10.0 mi West 19.6 mph - N/A   Clear
11:56 PM 57.0 °F 39.0 °F 51% 29.78 in 10.0 mi WSW 13.8 mph 21.9 mph N/A   Clear